Regional Weather Roundup
Issued by NWS Charleston, WV

Home | Current Version | Previous Version | Text Only | Print | Product List | Glossary Off
Versions: 1 2 3 4 5 6 7 8 9 10 11 12 13 14 15 16 17 18 19 20 21 22 23 24 25 26 27 28 29 30 31 32 33 34 35 36 37 38 39 40 41 42 43 44 45 46 47 48 49 50

000
ASUS41 KRLX 030810
RWRRLX
West Virginia Regional Weather Roundup
National Weather Service Charleston WV
300 AM EST TUE MAR 03 2015

Note: "fair" indicates few or no clouds below 12,000 feet with no
significant weather and/or obstructions to visibility.

WVZ003-030900-
Northern Panhandle of West Virginia

CITY           SKY/WX    TMP DP  RH WIND       PRES   REMARKS
WHEELING       MOCLDY    21  12  68 E7        30.29F
$$

WVZ009-030900-
Northwest West Virginia

CITY           SKY/WX    TMP DP  RH WIND       PRES   REMARKS
PARKERSBURG    CLOUDY    24  18  77 E5        30.29F
$$

WVZ006-030900-
Western West Virginia

CITY           SKY/WX    TMP DP  RH WIND       PRES   REMARKS
HUNTINGTON     CLOUDY    29  19  66 E6        30.22F
$$

WVZ015-030900-
West Central West Virginia

CITY           SKY/WX    TMP DP  RH WIND       PRES   REMARKS
CHARLESTON     CLOUDY    30  20  66 NE6       30.21F
$$

WVZ022-031-030900-
North Central West Virginia

CITY           SKY/WX    TMP DP  RH WIND       PRES   REMARKS
CLARKSBURG     MOCLDY    24  19  81 CALM      30.27F
MORGANTOWN     MOCLDY    24  14  65 CALM      30.29F
$$

WVZ025-035-042-045-030900-
Southern West Virginia

CITY           SKY/WX    TMP DP  RH WIND       PRES   REMARKS
BECKLEY        MOCLDY    32  15  49 SE9G21    30.18F
LOGAN            N/A     30  21  69 CALM      30.14F
BLUEFIELD      MOCLDY    37  17  44 NE7       30.18F
LEWISBURG      CLOUDY    27  19  74 NE3       30.23F
$$

WVZ047-030900-
Northern Mountains of West Virginia

CITY           SKY/WX    TMP DP  RH WIND       PRES   REMARKS
ELKINS         CLOUDY    21  20  96 CALM      30.26F FOG
$$

WVZ052-030900-
Eastern Panhandle of West Virginia

CITY           SKY/WX    TMP DP  RH WIND       PRES   REMARKS
MARTINSBURG    MOCLDY    24  15  68 NE5       30.39F
PETERSBURG     CLOUDY    25  19  78 CALM      30.36F
$$


USA.gov is the U.S. government's official web portal to all federal, state and local government web resources and services.